NORTHEAST SUFFOLK  -  Special Weather Statement Special Weather Statement        NORTHERN NASSAU  -  Special Weather Statement Special Weather Statement        NORTHWEST SUFFOLK  -  Special Weather Statement Special Weather Statement        SOUTHEAST SUFFOLK  -  Special Weather Statement Special Weather Statement        SOUTHERN NASSAU  -  Special Weather Statement Special Weather Statement        SOUTHWEST SUFFOLK  -  Special Weather Statement Special Weather Statement      

Active alerts

Northern Nassau
  Details for Northern Nassau Special Weather Statement
Southern Nassau
  Details for Southern Nassau Special Weather Statement
Northwest Suffolk
  Details for Northwest Suffolk Special Weather Statement
Southwest Suffolk
  Details for Southwest Suffolk Special Weather Statement
Northeast Suffolk
  Details for Northeast Suffolk Special Weather Statement
Southeast Suffolk
  Details for Southeast Suffolk Special Weather Statement


WXM80 ListenWXM80 Stop

You find our weather info also at:

UK Metoffice

WeatherCloud

Weather Underground

Northeastern Weather Network

AWEKAS

Citizen Weather Observer Program (CWOP)

HAMweather, WeatherForYou, PWS Weather


Weather Underground History page Text

Daily Summary for January 10, 2018 Units:  Metric    English   Both
« Previous Day
Next Day »
Daily Weekly Monthly Yearly Custom
  High: Low: Average:
Temperature: 3.3 °C -5.3 °C 1.3 °C
Dew Point: 1.4 °C -7.7 °C -2.4 °C
Humidity: 89 % 68 % 76 %
Wind Speed: 6.9 km/h 0 km/h 1.9 km/h
Wind Gust: 11.3 km/h - -
Wind:- - ESE
Pressure: 1033.4 hPa 1020.9 hPa -
Precipitation: 0 mm    
Historical Graphs
 
 
Tabular Data for January 10, 2018
Time Temperature Dew Point Pressure Wind Wind Speed Wind Gust Humidity Rainfall Rate (Hourly)
00:15 -0.2 °C -3.9 °C 1029 hPa NNE 1.9 km/h 5.6 km/h 76 % 0 mm
00:41 -0.3 °C -4.2 °C 1020.9 hPa North 1.9 km/h 8 km/h 75 % 0 mm
00:47 -0.3 °C -4.2 °C 1029.7 hPa North 1.8 km/h 5.6 km/h 75 % 0 mm
01:04 -0.3 °C -4.2 °C 1029.7 hPa North 3.4 km/h 5.6 km/h 75 % 0 mm
02:31 -0.6 °C -4.8 °C 1030.4 hPa NNE 3.1 km/h 8 km/h 73 % 0 mm
02:38 -0.6 °C -4.8 °C 1030.4 hPa North 3.5 km/h 6.4 km/h 73 % 0 mm
03:04 -0.8 °C -5 °C 1021.9 hPa NNE 0.6 km/h 6.4 km/h 73 % 0 mm
03:25 -1.1 °C -5.3 °C 1030.7 hPa North 1.6 km/h 5.6 km/h 73 % 0 mm
03:32 -1.1 °C -5.3 °C 1030.7 hPa North 0.3 km/h 5.6 km/h 73 % 0 mm
03:40 -1.2 °C -5.4 °C 1030.7 hPa Calm   3.7 km/h 73 % 0 mm
04:15 -1.8 °C -5.6 °C 1031.4 hPa Calm     75 % 0 mm
04:46 -2.4 °C -6.1 °C 1031.4 hPa Calm     76 % 0 mm
05:16 -3.3 °C -6.6 °C 1031.7 hPa Calm   1.6 km/h 78 % 0 mm
06:32 -5 °C -7.6 °C 1032.1 hPa Calm     82 % 0 mm
06:44 -5.2 °C -7.6 °C 1023.6 hPa Calm     83 % 0 mm
06:50 -5.2 °C -7.7 °C 1032.1 hPa NW 1.4 km/h 1.9 km/h 83 % 0 mm
06:52 -5.3 °C -7.7 °C 1032.1 hPa NW 0.8 km/h 1.9 km/h 83 % 0 mm
08:02 -5.2 °C -6.9 °C 1023.9 hPa NW 1.3 km/h 3.7 km/h 88 % 0 mm
08:44 -3 °C -4.6 °C 1024.3 hPa NNE 2.6 km/h 8 km/h 89 % 0 mm
08:50 -2.6 °C -4.5 °C 1024.6 hPa NE 4.5 km/h 6.4 km/h 87 % 0 mm
09:02 -1.7 °C -4.2 °C 1033.4 hPa ENE 6.1 km/h 8 km/h 83 % 0 mm
09:19 -0.4 °C -3.9 °C 1033.4 hPa ENE 4.3 km/h 11.1 km/h 77 % 0 mm
09:24 -0.1 °C -3.9 °C 1024.6 hPa ENE 4.3 km/h 7.4 km/h 75 % 0 mm
09:27 0.1 °C -4.2 °C 1024.9 hPa ENE 3.9 km/h 7.4 km/h 73 % 0 mm
09:29 0.2 °C -4.1 °C 1033.1 hPa ENE 2.3 km/h 4.8 km/h 73 % 0 mm
09:34 0.4 °C -4 °C 1033.4 hPa ENE 3.4 km/h 7.4 km/h 72 % 0 mm
09:44 0.8 °C -3.9 °C 1033.1 hPa ENE 4.5 km/h 5.6 km/h 71 % 0 mm
09:49 1 °C -3.7 °C 1033.4 hPa NE 4.3 km/h 6.4 km/h 71 % 0 mm
09:59 1.3 °C -3.7 °C 1033.4 hPa ENE 3.4 km/h 5.6 km/h 69 % 0 mm
10:08 1.6 °C -3.4 °C 1033.1 hPa NE 3.2 km/h 6.4 km/h 69 % 0 mm
10:13 1.7 °C -3.4 °C 1033.4 hPa ENE 6.9 km/h 11.3 km/h 69 % 0 mm
10:19 1.8 °C -3.3 °C 1033.4 hPa ENE 6.4 km/h 8 km/h 69 % 0 mm
10:24 1.8 °C -3.3 °C 1033.1 hPa NE 2.1 km/h 5.6 km/h 69 % 0 mm
10:29 2 °C -3.3 °C 1033.1 hPa ENE 5.6 km/h 7.4 km/h 68 % 0 mm
10:43 2.2 °C -3.1 °C 1024.6 hPa NE 0.2 km/h 5.6 km/h 68 % 0 mm
10:56 2.3 °C -3 °C 1032.7 hPa ENE 2.1 km/h 5.6 km/h 68 % 0 mm
11:01 2.3 °C -2.8 °C 1024.3 hPa NE 2.6 km/h 5.6 km/h 69 % 0 mm
11:06 2.3 °C -2.8 °C 1024.3 hPa NNE 4.5 km/h 5.6 km/h 69 % 0 mm
11:16 2.4 °C -2.7 °C 1032.7 hPa NNE 3.2 km/h 5.6 km/h 69 % 0 mm
11:24 2.4 °C -2.9 °C 1024.3 hPa NW 1.8 km/h 5.6 km/h 68 % 0 mm
11:34 2.2 °C -3.1 °C 1032.7 hPa North 3.4 km/h 5.6 km/h 68 % 0 mm
11:39 2.1 °C -3 °C 1024.3 hPa North 4 km/h 5.6 km/h 69 % 0 mm
11:44 2.1 °C -2.8 °C 1032.4 hPa NNE 4.8 km/h 5.6 km/h 70 % 0 mm
11:49 2.1 °C -2.8 °C 1032.4 hPa North 4 km/h 5.6 km/h 70 % 0 mm
11:54 2.1 °C -2.7 °C 1032.4 hPa North 3.2 km/h 5.6 km/h 71 % 0 mm
11:59 2 °C -2.7 °C 1032.4 hPa North 1.1 km/h 5.6 km/h 71 % 0 mm
12:04 2 °C -2.7 °C 1023.9 hPa North 2.7 km/h 5.6 km/h 71 % 0 mm
12:14 1.9 °C -2.6 °C 1032.1 hPa North 1.9 km/h 5.6 km/h 72 % 0 mm
12:20 2 °C -2.5 °C 1032.1 hPa NNE 3.9 km/h 5.6 km/h 72 % 0 mm
12:25 2.1 °C -2.4 °C 1023.6 hPa NNE 5.1 km/h 7.4 km/h 72 % 0 mm
12:31 2.2 °C -2.3 °C 1023.6 hPa North 1.6 km/h 6.4 km/h 72 % 0 mm
12:37 2.6 °C -1.9 °C 1023.2 hPa NNE 3.9 km/h 7.4 km/h 72 % 0 mm
12:44 2.8 °C -2.1 °C 1031.7 hPa North 3.2 km/h 5.6 km/h 70 % 0 mm
12:49 2.9 °C -2 °C 1023.2 hPa North 5.5 km/h 9.3 km/h 70 % 0 mm
12:58 3 °C -2.1 °C 1031.7 hPa NNE 3.2 km/h 5.6 km/h 69 % 0 mm
13:10 3.2 °C -2 °C 1031.4 hPa NNE 3.4 km/h 5.6 km/h 69 % 0 mm
13:19 3.3 °C -1.9 °C 1031.4 hPa NNE 5.3 km/h 6.4 km/h 69 % 0 mm
13:24 3.3 °C -2.1 °C 1031.4 hPa NNE 4 km/h 7.4 km/h 68 % 0 mm
13:33 3.2 °C -2.1 °C 1022.9 hPa North 4 km/h 5.6 km/h 68 % 0 mm
13:39 3.2 °C -1.9 °C 1031 hPa NNE 3.2 km/h 7.4 km/h 69 % 0 mm
13:48 3.3 °C -2.1 °C 1031 hPa ENE 3.2 km/h 7.4 km/h 68 % 0 mm
13:56 3.3 °C -2.1 °C 1031 hPa NNE 6.9 km/h 9.7 km/h 68 % 0 mm
14:02 3.2 °C -2 °C 1031 hPa NE 3.2 km/h 3.7 km/h 69 % 0 mm
14:11 2.9 °C -2.2 °C 1030.7 hPa NNE 4.5 km/h 6.4 km/h 69 % 0 mm
14:19 2.9 °C -2.2 °C 1022.6 hPa NNE 0.5 km/h 1.9 km/h 69 % 0 mm
14:25 2.8 °C -2.3 °C 1022.6 hPa Calm   3.7 km/h 69 % 0 mm
14:35 2.6 °C -2.7 °C 1031.4 hPa NNE 0.8 km/h 3.7 km/h 68 % 0 mm
14:45 2.4 °C -2.7 °C 1031.4 hPa NNE 2.6 km/h 5.6 km/h 69 % 0 mm
14:52 2.2 °C -2.5 °C 1031.4 hPa NNE 0.6 km/h 3.7 km/h 71 % 0 mm
14:58 2.1 °C -2.7 °C 1031.4 hPa NE 0.5 km/h 3.7 km/h 71 % 0 mm
15:03 2 °C -2.7 °C 1031.4 hPa NNE 0.2 km/h 1.6 km/h 71 % 0 mm
15:08 1.8 °C -2.9 °C 1031.4 hPa NNE 0.3 km/h 1.9 km/h 71 % 0 mm
15:14 1.8 °C -2.9 °C 1022.6 hPa Calm     71 % 0 mm
15:23 1.7 °C -3.2 °C 1031.4 hPa Calm   1.9 km/h 70 % 0 mm
15:28 1.7 °C -3.1 °C 1031.4 hPa NE 0.5 km/h 3.7 km/h 71 % 0 mm
15:33 1.6 °C -3.1 °C 1022.9 hPa NE 0.8 km/h 1.9 km/h 71 % 0 mm
15:42 1.6 °C -3.1 °C 1031.4 hPa NE 2.1 km/h 3.7 km/h 71 % 0 mm
15:54 1.4 °C -2.7 °C 1031.4 hPa Calm     74 % 0 mm
15:59 1.4 °C -2.7 °C 1031.4 hPa NE 0.5 km/h 3.7 km/h 74 % 0 mm
16:06 1.4 °C -2.7 °C 1022.6 hPa NE 1.3 km/h 3.7 km/h 74 % 0 mm
16:15 1.3 °C -2.6 °C 1031.4 hPa Calm     75 % 0 mm
16:22 1.2 °C -2.7 °C 1031 hPa Calm     75 % 0 mm
16:27 1.2 °C -2.6 °C 1022.2 hPa ESE 1.9 km/h 3.7 km/h 76 % 0 mm
16:29 1.2 °C -2.6 °C 1022.2 hPa Calm   5.6 km/h 76 % 0 mm
16:37 1.1 °C -2.7 °C 1031 hPa South 2.7 km/h 7.4 km/h 76 % 0 mm
16:42 1 °C -2.6 °C 1030.7 hPa SSW 1 km/h 5.6 km/h 77 % 0 mm
16:48 1 °C -2.4 °C 1022.6 hPa South 0.2 km/h 1.6 km/h 78 % 0 mm
17:10 1.1 °C -2.1 °C 1031.4 hPa Calm     79 % 0 mm
17:21 1.3 °C -2.1 °C 1022.9 hPa South 3.2 km/h 8 km/h 78 % 0 mm
17:28 1.6 °C -2.1 °C 1031.4 hPa South 0.8 km/h 3.7 km/h 77 % 0 mm
17:33 1.7 °C -1.9 °C 1031.4 hPa SSW 2.9 km/h 11.3 km/h 77 % 0 mm
17:42 1.8 °C -2 °C 1031.4 hPa South 2.7 km/h 5.6 km/h 76 % 0 mm
17:47 1.8 °C -1.9 °C 1031.4 hPa South 0.3 km/h 3.7 km/h 76 % 0 mm
18:01 1.9 °C -1.9 °C 1022.9 hPa South 1.4 km/h 5.6 km/h 76 % 0 mm
18:06 1.9 °C -2.1 °C 1031.4 hPa SSE 0.3 km/h 9.3 km/h 75 % 0 mm
18:12 1.9 °C -2.1 °C 1031.4 hPa Calm   1.9 km/h 75 % 0 mm
18:18 1.8 °C -2.1 °C 1022.6 hPa South 1.4 km/h 5.6 km/h 75 % 0 mm
18:25 1.7 °C -2.3 °C 1031.4 hPa South 3.7 km/h 5.6 km/h 75 % 0 mm
18:34 1.5 °C -2.3 °C 1031.4 hPa South 1.3 km/h 5.6 km/h 76 % 0 mm
18:39 1.4 °C -2.3 °C 1031.4 hPa Calm   3.7 km/h 76 % 0 mm
18:49 1.3 °C -2.3 °C 1031.4 hPa Calm     77 % 0 mm
18:56 1.2 °C -2.4 °C 1031.4 hPa SSE 3.2 km/h 5.6 km/h 77 % 0 mm
19:12 1.2 °C -2.2 °C 1022.9 hPa Calm     78 % 0 mm
19:25 1.1 °C -2.1 °C 1031.4 hPa Calm   1.9 km/h 79 % 0 mm
19:30 1.1 °C -2.1 °C 1031.4 hPa SSE 0.3 km/h 3.7 km/h 79 % 0 mm
19:36 1.1 °C -2.1 °C 1031.7 hPa SSE 0.8 km/h 1.9 km/h 79 % 0 mm
19:42 1.2 °C -2.1 °C 1031.7 hPa SSE 2.6 km/h 3.7 km/h 79 % 0 mm
19:47 1.2 °C -1.9 °C 1031.7 hPa Calm   3.7 km/h 80 % 0 mm
19:53 1.2 °C -1.9 °C 1031.7 hPa Calm   1.9 km/h 80 % 0 mm
20:01 1.2 °C -1.8 °C 1032.1 hPa Calm   1.9 km/h 80 % 0 mm
20:07 1.3 °C -1.6 °C 1023.2 hPa Calm   1.9 km/h 81 % 0 mm
20:08 1.3 °C -1.6 °C 1023.2 hPa SSE 1.8 km/h 3.7 km/h 81 % 0 mm
20:10 1.3 °C -1.6 °C 1023.2 hPa SSE 2.4 km/h 3.7 km/h 81 % 0 mm
20:11 1.3 °C -1.6 °C 1023.2 hPa SSE 3.2 km/h 6.4 km/h 81 % 0 mm
20:16 1.4 °C -1.4 °C 1031.4 hPa SSE 1.4 km/h 3.7 km/h 81 % 0 mm
20:23 1.5 °C -1.4 °C 1022.6 hPa SE 1.9 km/h 5.6 km/h 81 % 0 mm
20:46 1.8 °C -0.9 °C 1030.7 hPa South 1.6 km/h 8 km/h 82 % 0 mm
20:51 1.8 °C -0.9 °C 1030.7 hPa Calm   3.2 km/h 82 % 0 mm
21:00 1.9 °C -0.8 °C 1030.7 hPa South 2.4 km/h 5.6 km/h 82 % 0 mm
21:24 2 °C -0.4 °C 1022.2 hPa South 1.4 km/h 3.7 km/h 84 % 0 mm
21:29 2 °C -0.4 °C 1022.2 hPa South 1.6 km/h 5.6 km/h 84 % 0 mm
21:35 2.1 °C -0.2 °C 1030.7 hPa South 2.7 km/h 5.6 km/h 85 % 0 mm
21:51 2.2 °C -0.1 °C 1030.7 hPa SSW 3.2 km/h 5.6 km/h 85 % 0 mm
21:59 2.3 °C 0.2 °C 1030.7 hPa Calm   1.9 km/h 86 % 0 mm
22:08 2.3 °C 0.2 °C 1030.7 hPa Calm   1.9 km/h 86 % 0 mm
22:25 2.5 °C 0.6 °C 1021.9 hPa Calm   1.9 km/h 87 % 0 mm
22:33 2.7 °C 0.9 °C 1030.4 hPa South 2.9 km/h 5.6 km/h 88 % 0 mm
22:39 2.8 °C 1 °C 1030.4 hPa South 2.3 km/h 5.6 km/h 88 % 0 mm
22:44 2.8 °C 1.1 °C 1030.4 hPa SW 0.5 km/h 3.7 km/h 88 % 0 mm
22:49 2.9 °C 1.1 °C 1030.4 hPa Calm   1.9 km/h 88 % 0 mm
22:57 3 °C 1.2 °C 1030.4 hPa Calm     88 % 0 mm
23:03 3.1 °C 1.3 °C 1021.6 hPa Calm     88 % 0 mm
23:08 3.2 °C 1.4 °C 1030.4 hPa Calm     88 % 0 mm
23:15 3.2 °C 1.4 °C 1021.6 hPa Calm     88 % 0 mm
23:25 3.2 °C 1.3 °C 1030 hPa Calm     87 % 0 mm
23:30 3.2 °C 1.2 °C 1021.6 hPa Calm     87 % 0 mm
23:35 3.2 °C 1.2 °C 1029.7 hPa Calm     87 % 0 mm
23:42 3.1 °C 1.2 °C 1030 hPa Calm     87 % 0 mm
23:47 3.1 °C 1.1 °C 1029.7 hPa Calm     87 % 0 mm
23:57 3 °C 1.2 °C 1021.2 hPa SW 1.3 km/h 3.7 km/h 88 % 0 mm
Crab Meadow Weather
Compliments of Weather Underground - 2 mb

Script developed by  Jim McMurry - jmcmurry@mwt.net Adapted for the template by  Wim van der Kuil - Leuven-Template.eu

Astronomy: Space missions to Mars suggest that it once had water.